sat.trackr.live / text

‹ back to catalog

STARLINK-37723

NORAD 69128 · 2026-110E

PAYLOAD ACTIVE UNKNOWN

§ Identity

Operator
Country
US
Launch date
2026-05-20
Launch site
AFWTR
Launch vehicle
Mass (kg)
RCS (m²)

Purposes: comms

External: N2YO · Heavens-Above · Gunter

§ Orbital elements

Epoch: 2026-09-19T07:57:27.850176Z

Period
93.91 min
Inclination
97.2858°
Eccentricity
0.0001142
Mean motion
15.33443063 rev/d
Perigee alt
464.8 km
Apogee alt
466.3 km
Semi-major
6,843.7 km
B*
4.6243e-4
RAAN
97.3579°
Arg perigee
89.1531°
Mean anomaly
270.9843°
Rev number
2,003

§ Raw data

STARLINK-377231 69128U 26110E   26262.33157234  .00014882  00000+0  46243-3 0  99962 69128  97.2858  97.3579 0001142  89.1531 270.9843 15.33443063 20032

JSON: /api/v1/satellites/69128 · /tle

For live sub-satellite position, see the globe view (requires WebGL).

§ Visibility from observer

Set your observer location to see the next 7 days of passes ≥ 10°. The values pass through the URL so the page stays shareable.

No JS? Fill the form by hand. The geolocation button needs JavaScript.